FW6661 Weather Reports


Display with metric or nautical units.
time (UTC)temp
F
wind
direction
speed
MPH
gust
MPH
rain 1hr
in
rain 24hr
in
rain mn
in
humidity
%
barometer
mb
20260504050704 49 0 0.0 0.0 0.00 0.00 0.00 100 992.4
20260504045700 49 0 0.0 0.0 0.00 0.00 0.00 100 992.3
20260504044703 49 0 0.0 0.0 0.00 0.00 0.00 100 992.2
20260504043703 49 0 0.0 0.0 0.00 0.00 0.00 100 992.3
20260504041702 49 0 0.0 0.0 0.00 0.00 0.00 100 992.0
20260504040703 50 0 0.0 0.0 0.00 0.00 0.00 100 991.9
20260504035702 51 0 0.0 0.0 0.00 0.00 0.00 100 992.0
20260504033703 49 0 0.0 0.0 0.00 0.00 0.00 100 991.9
20260504032704 49 0 0.0 0.0 0.00 0.00 0.00 100 991.9
20260504030704 49 0 0.0 0.0 0.00 0.00 0.00 100 992.0
20260504025705 49 0 0.0 0.0 0.00 0.00 0.00 100 991.9
20260504024703 49 0 0.0 0.0 0.00 0.00 0.00 100 991.9
20260504023704 48 0 0.0 0.0 0.00 0.00 0.00 100 992.0
20260504022704 48 0 0.0 0.0 0.00 0.00 0.00 100 991.9
20260504021706 48 0 0.0 0.0 0.00 0.00 0.00 100 991.8
20260504020704 48 0 0.0 0.0 0.00 0.00 0.00 100 991.8
20260504015705 49 0 0.0 0.0 0.00 0.00 0.00 100 991.6
20260504014703 50 0 0.0 0.0 0.00 0.00 0.00 100 991.6
20260504013711 50 0 0.0 0.0 0.00 0.00 0.00 100 991.4
20260504012704 51 0 0.0 0.0 0.00 0.00 0.00 100 991.2
20260504011709 51 0 0.0 0.0 0.00 0.00 0.00 100 991.1
20260504010705 52 0 0.0 0.0 0.00 0.00 0.00 92 991.0
20260504005703 52 0 0.0 0.0 0.00 0.00 0.00 90 991.1
20260504004704 53 0 0.0 0.0 0.00 0.00 0.00 82 991.0
20260504003718 53 0 0.0 0.0 0.00 0.00 0.00 74 990.8
20260504002705 54 0 0.0 0.0 0.00 0.00 0.00 74 990.8
20260504001704 55 0 0.0 0.0 0.00 0.00 0.00 62 990.8
20260504000703 56 0 0.0 0.0 0.00 0.00 0.00 52 990.7
20260503235704 57 0 0.0 0.0 0.00 0.00 0.00 50 990.5
20260503234705 58 0 0.0 0.0 0.00 0.00 0.00 41 990.4
20260503233705 59 0 0.0 0.0 0.00 0.00 0.00 37 990.3
20260503232702 60 0 0.0 0.0 0.00 0.00 0.00 38 990.3
20260503230704 61 90 0.0 0.0 0.00 0.00 0.00 39 990.2
20260503225705 61 0 0.0 0.0 0.00 0.00 0.00 39 990.1
20260503224705 62 0 0.0 0.0 0.00 0.00 0.00 37 990.2
20260503223705 62 225 0.0 1.0 0.00 0.00 0.00 36 990.1
20260503222702 63 0 0.0 0.0 0.00 0.00 0.00 31 990.0
20260503221704 63 0 0.0 0.0 0.00 0.00 0.00 38 990.2
20260503220706 64 45 1.0 1.0 0.00 0.00 0.00 30 990.2
20260503215703 64 0 0.0 0.0 0.00 0.00 0.00 29 990.2
20260503214703 64 135 0.0 0.0 0.00 0.00 0.00 28 990.2
20260503213704 64 113 0.0 0.0 0.00 0.00 0.00 32 990.2
20260503212704 64 153 1.0 1.0 0.00 0.00 0.00 31 990.2
20260503211704 64 90 0.0 0.0 0.00 0.00 0.00 31 990.2
20260503210708 64 135 0.0 0.0 0.00 0.00 0.00 26 990.2
20260503205703 65 93 1.0 1.0 0.00 0.00 0.00 27 990.3
20260503204704 65 40 1.0 1.0 0.00 0.00 0.00 26 990.4
20260503203714 65 251 0.0 1.0 0.00 0.00 0.00 30 990.5
20260503202725 66 52 1.0 2.0 0.00 0.00 0.00 28 990.6
20260503201706 67 203 1.0 2.0 0.00 0.00 0.00 26 990.7
20260503200707 66 316 1.0 1.0 0.00 0.00 0.00 30 991.0
20260503195705 66 61 1.0 1.0 0.00 0.00 0.00 29 991.1
20260503193708 64 173 1.0 1.0 0.00 0.00 0.00 32 991.4
20260503192706 64 180 1.0 1.0 0.00 0.00 0.00 30 991.6
20260503191706 64 45 1.0 1.0 0.00 0.00 0.00 28 991.8
20260503190720 65 7 1.0 1.0 0.00 0.00 0.00 31 992.0
20260503185703 63 169 2.0 3.0 0.00 0.00 0.00 29 992.2
20260503183705 63 254 1.0 2.0 0.00 0.00 0.00 37 992.5
20260503182704 62 70 1.0 1.0 0.00 0.00 0.00 33 992.7
20260503180703 62 108 1.0 2.0 0.00 0.00 0.00 33 992.6
20260503175704 62 180 1.0 1.0 0.00 0.00 0.00 34 992.8
20260503174705 62 174 1.0 1.0 0.00 0.00 0.00 32 993.0
20260503173705 62 131 1.0 1.0 0.00 0.00 0.00 33 993.1
20260503172704 60 100 1.0 1.0 0.00 0.00 0.00 33 993.1
20260503171711 60 328 1.0 1.0 0.00 0.00 0.00 35 993.4
20260503170719 60 156 1.0 1.0 0.00 0.00 0.00 35 993.5
20260503150704 53 81 1.0 2.0 0.00 0.00 0.00 41 995.0
20260503110705 41 0 0.0 0.0 0.00 0.00 0.00 100 994.5
20260503080703 42 0 0.0 0.0 0.00 0.00 0.00 100 992.0
20260503072705 42 0 0.0 0.0 0.00 0.00 0.00 100 991.8
20260503070703 41 0 0.0 0.0 0.00 0.00 0.00 100 991.6